Regional Weather Roundup
Issued by NWS

Home | Current Version | Previous Version | Text Only | Print | Product List | Glossary On
Versions: 1 2 3 4 5 6 7 8 9 10 11 12 13 14 15 16 17 18 19 20 21 22 23 24 25 26 27
000
ASUS45 KREV 232110
RWRNV
NEVADA REGIONAL WEATHER ROUNDUP
NATIONAL WEATHER SERVICE RENO NV
200 PM PDT MON OCT 23 2017

NOTE: "FAIR" INDICATES FEW OR NO CLOUDS BELOW 12,000 FEET WITH NO
SIGNIFICANT WEATHER AND/OR OBSTRUCTIONS TO VISIBILITY.

NVZ001-003-004-232200-
WESTERN NEVADA

CITY           SKY/WX    TMP DP  RH WIND       PRES   REMARKS
RENO           SUNNY     71  39  31 VRB3      30.55F
CARSON CITY    FAIR      72  36  26 E14       30.56F
MINDEN         FAIR      70  32  24 NW7       30.55F
SLIDE MTN        N/A     50  36  57 E10         N/A
FALLON         SUNNY     71  34  25 NE8       30.55F
LOVELOCK       SUNNY     70  40  33 NE15      30.57F
HAWTHORNE      SUNNY     70  36  28 N9        30.53F
$$

NVZ002-CAZ072-073-232200-
NORTHERN AND CENTRAL SIERRA

CITY           SKY/WX    TMP DP  RH WIND       PRES   REMARKS
S. LAKE TAHOE  SUNNY     64  36  35 VRB3      30.58F
TRUCKEE        SUNNY     66  37  34 NE6       30.58F
SQUAW VLY 8000   N/A     57  36  44 SE7         N/A
SUSANVILLE     SUNNY     66  45  45 E8        30.58F
BLUE CANYON    SUNNY     77  38  24 NE9       30.49F
MAMMOTH LAKES  FAIR      72  28  19 SE6       30.61F
BRIDGEPORT     FAIR      71  28  20 VRB6      30.57F
$$

NVZ030-031-036-232200-
NORTHERN NEVADA

CITY           SKY/WX    TMP DP  RH WIND       PRES   REMARKS
ELKO           SUNNY     66  35  31 CALM      30.59F
WINNEMUCCA     SUNNY     67  42  40 N12       30.60F
WENDOVER       SUNNY     62  40  44 SE9       30.58F
$$

NVZ035-037-232200-
CENTRAL NEVADA

CITY           SKY/WX    TMP DP  RH WIND       PRES   REMARKS
ELY            LGT RAIN  67  35  30 N15G23    30.58F
EUREKA           N/A     67  35  30 N12G18    30.60F
$$

NVZ013-014-232200-
SOUTH CENTRAL NEVADA

CITY           SKY/WX    TMP DP  RH WIND       PRES   REMARKS
TONOPAH        SUNNY     76  31  19 NW13      30.51F
$$

NVZ017-020-022-232200-
SOUTHERN NEVADA

CITY           SKY/WX    TMP DP  RH WIND       PRES   REMARKS
LAS VEGAS      SUNNY     89  32  13 NE13G22   30.27F
N. LAS VEGAS   SUNNY     89  31  12 N12G18    30.26F
NELLIS AFB     SUNNY     89  32  13 N16G23    30.24F
HENDERSON      SUNNY     86  32  14 NE13      30.30F
MERCURY        SUNNY     87  34  15 N13G20    30.34F
$$




USA.gov is the U.S. government's official web portal to all federal, state and local government web resources and services.